Location: West Cummington
(42.4920°N, 72.9680°W)
Time: 12:54:45
(UTC-05:00)

Daily predictions for brighter satellites

Satellite Brightness Start Highest point End
(mag) Time Altitude Azimuth Time Altitude Azimuth Time Altitude Azimuth
Cosmos 2263 Rocket 4.0 16:44:59 10° WSW 16:49:43 27° NW 16:54:31 10° N
Okean 3 3.9 16:45:58 10° SSW 16:50:14 68° W 16:54:29 10° N
CZ-3A R/B 3.2 16:47:48 10° WSW 16:51:53 72° NNW 17:12:32 10° NE
SPOT 3 Rocket 3.7 16:49:49 10° SE 16:54:49 51° ENE 16:59:51 10° N
Abrixas 3.7 16:52:24 10° NW 16:54:58 26° N 16:57:32 10° ENE
OTV 4 3.5 16:58:02 10° SW 16:59:32 13° SSW 17:01:01 10° S
Ariane Rocket 4.5 16:56:39 10° S 17:01:26 42° W 17:06:16 10° NNW
ATLAS 2AS CENTAUR R/B 3.0 16:54:03 10° NW 17:02:13 79° NE 17:09:48 10° SE
SMAP 3.1 16:58:18 10° SSE 17:02:51 56° ENE 17:07:24 10° N
Cosmos 2341 Rocket 4.5 16:57:43 10° NNW 17:03:53 66° W 17:10:02 10° S
COSMOS 2487 3.9 17:02:40 10° NNE 17:05:19 19° ENE 17:07:56 10° ESE
USA 32 4.0 17:00:20 10° S 17:05:29 66° E 17:10:41 10° N
Cosmos 494 Rocket 4.0 17:01:24 10° NNW 17:06:35 59° ENE 17:11:46 10° SSE
OPS 8737 4.3 17:06:59 10° SSW 17:10:19 67° ESE 17:13:12 12° NE
BREEZE-M DEB (TANK) 2.3 17:10:08 10° W 17:12:18 38° NNW 17:13:59 14° NE
Cosmos 1844 Rocket 3.0 17:08:43 10° SSW 17:14:17 71° WNW 17:19:56 10° NNE
Cosmos 1238 Rocket 2.1 17:12:53 10° S 17:15:46 59° E 17:18:49 10° NNE
Cosmos 1544 Rocket 3.5 17:11:52 10° N 17:16:21 84° E 17:20:49 10° S
IDEFIX/ARIANE 42P 2.5 17:12:14 10° SSE 17:17:26 78° ENE 17:22:37 10° N
SL-8 R/B 3.8 17:14:08 10° SW 17:18:53 70° SSE 17:22:40 16° ENE
Cosmos 1812 2.7 17:15:14 10° S 17:19:02 63° E 17:22:51 10° NNE
COSMO-SKYMED 1 3.5 17:15:26 10° NE 17:19:10 27° E 17:22:52 10° SSE
Cosmos 1975 Rocket 4.2 17:16:51 10° SSW 17:20:59 45° WNW 17:25:10 10° N
USA 116 4.5 17:15:57 10° NNE 17:21:24 88° ESE 17:26:34 10° SSW
CZ-2C R/B 2.5 17:16:59 10° SSE 17:21:58 88° ENE 17:27:08 10° NNW
Okean 1 3.5 17:19:02 10° SSE 17:22:56 49° E 17:26:53 10° NNE
Meteor 1-18 Rocket 4.2 17:17:27 10° S 17:23:03 71° E 17:28:48 10° NNE
CRYOSAT 2 4.5 17:18:14 10° N 17:23:09 81° W 17:28:02 10° S
Intercosmos 25 4.5 17:22:55 10° NNE 17:26:12 17° E 17:27:44 10° ESE
Cosmos 375 4.4 17:22:38 10° NNW 17:27:10 58° NE 17:30:58 10° SE
SJ-7 4.5 17:23:30 10° SSE 17:27:44 89° E 17:32:01 10° NNW
CORIOLIS 4.1 17:22:35 10° SSE 17:28:00 87° ENE 17:33:25 10° NNW
Cosmos 864 Rocket 4.5 17:21:47 10° N 17:28:05 81° E 17:34:25 10° S
Nadezhda 3 Rocket 4.4 17:24:26 10° SSE 17:30:10 41° E 17:35:59 10° NNE
Thor Agena Rocket 3.6 17:24:57 10° NNE 17:30:11 85° WNW 17:35:27 10° SSW
COSMOS 2441 4.4 17:26:43 10° SSE 17:31:30 59° ENE 17:36:19 10° N
Cosmos 1844 4.0 17:28:47 10° SW 17:34:18 65° WNW 17:39:51 10° NNE
Cosmos 1346 Rocket 3.0 17:32:41 10° SSE 17:36:25 45° E 17:39:20 15° NNE
Cosmos 2297 4.2 17:31:57 10° S 17:37:09 39° ESE 17:40:46 18° NE
Cosmos 1536 Rocket 3.5 17:33:04 10° S 17:37:31 84° E 17:42:02 10° N
CZ-4 R/B 4.5 17:35:19 10° SSE 17:39:27 86° WSW 17:43:39 10° NNW
Cosmos 2251 Rocket 4.1 17:34:29 10° NNW 17:39:47 62° WSW 17:45:00 10° S
YAOGAN 1 3.3 17:41:25 10° S 17:45:40 55° W 17:49:56 10° NNW
Cosmos 1025 Rocket 4.3 17:42:17 10° SE 17:44:59 22° ESE 17:44:59 22° ESE
OE (NEXTSAT) 4.5 17:45:53 10° WSW 17:49:25 65° SSE 17:50:36 38° E
NOSS 2-1 (D) 4.3 17:46:11 10° S 17:49:28 28° ESE 17:49:49 27° ESE
Cosmos 921 Rocket 3.5 17:45:40 10° SSE 17:49:33 36° E 17:50:39 31° ENE
Cosmos 2278 Rocket 2.3 17:44:30 10° SSW 17:50:09 79° WNW 17:55:36 11° NNE
NOSS 2-1 (C) 4.3 17:46:53 10° S 17:50:10 27° ESE 17:50:28 27° ESE
Tiangong 1 1.9 17:49:31 10° SW 17:52:20 35° SSE 17:52:44 33° SE
NOAA 12 4.2 17:55:43 10° SE 18:00:46 48° ENE 18:05:48 10° N
MSX 4.2 17:55:31 10° S 18:01:13 66° WSW 18:06:57 10° NNW
CZ-4 R/B 4.0 18:00:28 10° SSW 18:03:50 23° W 18:07:12 10° NW
FALCON 9 R/B 4.0 17:40:20 10° WSW 18:06:00 55° S 18:10:58 23° ESE
Genesis I 3.4 18:02:51 10° NW 18:06:47 71° WSW 18:10:39 10° SSE
SKYMED 2 3.5 18:03:45 15° NNE 18:07:24 89° WNW 18:11:45 10° SSW
Meteor 1-19 Rocket 4.3 18:02:03 10° S 18:07:43 60° E 18:12:41 14° NNE
Cosmos 1975 3.9 18:04:15 10° NNW 18:08:11 47° W 18:12:04 10° SSW
NOSS 2-1 (E) 3.9 18:05:04 10° S 18:08:29 39° SE 18:08:29 39° SE
METEOR-M 4.2 18:07:23 10° SE 18:12:32 52° ENE 18:17:43 10° N
Cosmos 1833 Rocket 2.6 18:08:54 10° NNW 18:14:32 65° ENE 18:20:04 10° SE
Cosmos 2082 Rocket 2.1 18:09:23 10° NNW 18:15:05 77° ENE 18:20:46 10° SSE
Okean 1-7 Rocket 3.5 18:10:44 10° S 18:15:14 78° E 18:17:21 31° NNE
Cosmos 1743 2.6 18:14:53 10° N 18:18:48 87° E 18:22:39 10° S
Cosmos 1484 Rocket 3.8 18:16:41 10° S 18:20:18 45° W 18:23:54 10° NNW
USA 234 4.0 18:19:23 23° NNE 18:23:10 44° NNW 18:29:17 10° W
Cosmos 1934 Rocket 3.9 18:17:46 10° N 18:23:54 59° E 18:30:05 10° SSE
Cosmos 1535 Rocket 4.4 18:19:02 10° N 18:25:23 76° E 18:31:35 10° SSE
ISS -1.0 18:23:17 10° WNW 18:25:01 17° NNW 18:25:01 17° NNW
Meteor 1-13 Rocket 4.3 18:20:39 10° SSW 18:26:19 79° W 18:32:10 10° N
Cosmos 2056 Rocket 4.1 18:22:28 10° S 18:26:34 40° SE 18:26:34 40° SE
Meteor 1-28 Rocket 3.3 18:30:41 74° WSW 18:30:41 74° WSW 18:34:15 10° SSW
GEOS 3 Rocket 3.5 18:30:07 27° SSE 18:33:01 83° SW 18:38:10 10° NW
BREEZE M DEB (TANK) 3.5 18:31:15 10° WNW 18:35:09 67° NNE 18:37:40 43° E
Meteor 1-23 Rocket 4.1 18:30:06 10° S 18:35:44 65° E 18:36:18 61° ENE
NOSS 3-4 (A) 3.8 18:31:06 10° NNW 18:38:00 61° NE 18:39:37 50° E
NOSS 3-4 (C) 3.8 18:31:12 10° NNW 18:38:07 60° NE 18:39:40 50° E
Cosmos 2239 Rocket 4.5 18:34:37 10° N 18:40:51 81° W 18:47:00 10° S
Cosmos 1624 Rocket 4.3 18:36:00 10° S 18:40:06 52° SSE 18:40:06 52° SSE
CZ-3B DEB 3.5 18:38:45 10° W 18:43:32 47° NNW 18:47:51 30° NE
Cosmos 1371 Rocket 3.9 18:40:28 10° SSW 18:45:49 85° ESE 18:45:59 83° ENE
Meteor 2-8 Rocket 4.2 18:41:05 10° S 18:47:08 76° E 18:48:17 59° NNE
Meteor 2-4 Rocket 3.5 18:42:33 10° S 18:47:56 87° W 18:48:43 66° N
ATLAS 3B CENTAUR R/B 4.2 18:34:17 10° WSW 18:49:40 35° SSW 18:53:40 23° SSE
Cosmos 1821 Rocket 4.1 18:44:56 10° NNW 18:51:01 70° W 18:57:03 10° S
Meteor 2-9 Rocket 4.0 18:46:24 10° N 18:51:53 86° W 18:57:13 10° S
COSMO-SKYMED 1 4.5 18:52:19 14° NNW 18:55:15 27° WNW 18:58:56 10° SW
Cosmos 1605 Rocket 4.2 18:55:11 10° N 19:08:52 - S 19:00:08 56° N
